DLH1849 LEAL-EDDM

Flight info

Callsign DLH1849
Flight time N/A
Altitude 38000
Route MITOS N851 PTC DCT CDP DCT CHELY DCT LUMAS DCT UNANA DCT STP DCT RAPED DCT PIGOS DCT EKSID DCT NOSTA DCT NOPMU DCT TAGIP DCT GUNGO DCT IVKAL T102 NINUR T101 BETOS BETOS1A
Aircraft A20N/M-SDE2E3FGHIRWXY/LB1

Departure

Time N/A
Airport Alicante-Elche Miguel Hernández Airport (LEAL)

Arrival

Time 2026-05-04 19:24
Airport Munich Airport (EDDM)
Time Latitude Longitude Altitude Speed Heading
2026-05-04 18:33 46.71648 11.04193 34089 ft 419 kts 354°
2026-05-04 18:34 46.77391 11.03805 34100 ft 434 kts 355°
2026-05-04 18:34 46.83496 11.02942 34081 ft 447 kts 350°
2026-05-04 18:35 46.89774 11.01762 34070 ft 462 kts 350°
2026-05-04 18:35 46.96202 11.00937 34072 ft 463 kts 353°
2026-05-04 18:36 47.02610 11.00156 34103 ft 463 kts 353°
2026-05-04 18:36 47.09006 11.00675 34128 ft 465 kts
2026-05-04 18:37 47.14328 11.01756 34190 ft 465 kts 13°
2026-05-04 18:37 47.20591 11.04214 34279 ft 464 kts 11°
2026-05-04 18:38 47.26938 11.05761 34179 ft 458 kts
2026-05-04 18:38 47.28562 11.06049 33961 ft 457 kts
2026-05-04 18:38 47.30710 11.06358 33472 ft 458 kts
2026-05-04 18:39 47.33889 11.06081 32779 ft 457 kts 348°
2026-05-04 18:39 47.36946 11.04817 32091 ft 456 kts 335°
2026-05-04 18:39 47.39741 11.02636 31426 ft 454 kts 323°
2026-05-04 18:39 47.42113 10.99695 30791 ft 451 kts 311°
2026-05-04 18:40 47.43893 10.96006 31137 ft 433 kts 295°
2026-05-04 18:40 47.45004 10.91876 31267 ft 436 kts 283°
2026-05-04 18:40 47.45527 10.87436 30987 ft 434 kts 274°
2026-05-04 18:41 47.46107 10.78614 30973 ft 434 kts 274°
2026-05-04 18:41 47.46394 10.74196 30854 ft 431 kts 274°
2026-05-04 18:41 47.46681 10.69789 30417 ft 429 kts 274°
2026-05-04 18:41 47.46966 10.65430 29941 ft 425 kts 274°
2026-05-04 18:42 47.47251 10.61097 29352 ft 421 kts 274°
2026-05-04 18:42 47.47539 10.56806 28762 ft 417 kts 274°
2026-05-04 18:42 47.48128 10.52623 28177 ft 416 kts 287°
2026-05-04 18:42 47.49394 10.48793 27595 ft 416 kts 301°
2026-05-04 18:43 47.51284 10.45541 26981 ft 418 kts 316°
2026-05-04 18:43 47.53674 10.43109 26407 ft 419 kts 331°
2026-05-04 18:43 47.56418 10.41663 25869 ft 420 kts 346°
2026-05-04 18:43 47.59328 10.41313 25289 ft 421 kts
2026-05-04 18:44 47.62202 10.42103 24721 ft 422 kts 17°
2026-05-04 18:44 47.63997 10.43234 24368 ft 422 kts 27°
2026-05-04 18:44 47.67094 10.46687 23652 ft 420 kts 47°
2026-05-04 18:44 47.68838 10.50122 23068 ft 416 kts 61°
2026-05-04 18:45 47.69982 10.54028 22500 ft 411 kts 72°
2026-05-04 18:45 47.70929 10.58023 21951 ft 408 kts 72°
2026-05-04 18:45 47.71871 10.61974 21424 ft 405 kts 72°
2026-05-04 18:45 47.72808 10.65903 20898 ft 401 kts 72°
2026-05-04 18:46 47.73736 10.69798 20356 ft 399 kts 72°
2026-05-04 18:46 47.74657 10.73671 19848 ft 396 kts 72°
2026-05-04 18:46 47.75572 10.77527 19341 ft 393 kts 72°
2026-05-04 18:46 47.76479 10.81355 18838 ft 391 kts 72°
2026-05-04 18:47 47.77379 10.85160 18366 ft 389 kts 72°
2026-05-04 18:47 47.78270 10.88930 17859 ft 385 kts 72°
2026-05-04 18:47 47.79154 10.92679 17374 ft 381 kts 72°
2026-05-04 18:47 47.80028 10.96388 16888 ft 378 kts 72°
2026-05-04 18:48 47.80880 11.00007 16415 ft 374 kts 72°
2026-05-04 18:48 47.81735 11.03652 15932 ft 371 kts 72°
2026-05-04 18:48 47.82582 11.07266 15442 ft 368 kts 72°
2026-05-04 18:48 47.83417 11.10835 15117 ft 362 kts 72°
2026-05-04 18:49 47.84246 11.14389 15005 ft 365 kts 72°
2026-05-04 18:49 47.85077 11.17957 14975 ft 365 kts 72°
2026-05-04 18:49 47.85908 11.21530 14943 ft 363 kts 72°
2026-05-04 18:49 47.86735 11.25092 14940 ft 365 kts 72°
2026-05-04 18:50 47.87624 11.28660 14938 ft 366 kts 64°
2026-05-04 18:50 47.89115 11.31706 14941 ft 368 kts 43°
2026-05-04 18:50 47.91236 11.33811 14942 ft 368 kts 22°
2026-05-04 18:50 47.93714 11.34712 14939 ft 366 kts
2026-05-04 18:51 47.96226 11.34792 14941 ft 365 kts 357°
2026-05-04 18:51 47.98800 11.34706 14938 ft 366 kts 357°
2026-05-04 18:51 48.01348 11.34696 14943 ft 366 kts 359°
2026-05-04 18:51 48.03864 11.34789 14939 ft 367 kts
2026-05-04 18:52 48.06412 11.34957 14941 ft 367 kts
2026-05-04 18:52 48.08966 11.35378 14940 ft 374 kts 14°
2026-05-04 18:52 48.11403 11.37003 14944 ft 383 kts 32°
2026-05-04 18:52 48.13618 11.39221 14945 ft 383 kts 34°
2026-05-04 18:53 48.15792 11.41428 14943 ft 382 kts 34°
2026-05-04 18:53 48.17517 11.43180 14937 ft 383 kts 34°
2026-05-04 18:53 48.19717 11.45419 14909 ft 380 kts 34°
2026-05-04 18:53 48.21876 11.47618 14817 ft 371 kts 34°
2026-05-04 18:54 48.24001 11.49795 14448 ft 367 kts 37°
2026-05-04 18:54 48.25772 11.52512 13963 ft 364 kts 58°
2026-05-04 18:54 48.26783 11.55935 13439 ft 357 kts 80°
2026-05-04 18:54 48.26968 11.59607 12937 ft 350 kts 94°
2026-05-04 18:55 48.26924 11.63247 12450 ft 347 kts 94°
2026-05-04 18:55 48.26820 11.70441 11494 ft 342 kts 94°
2026-05-04 18:55 48.26763 11.73997 11033 ft 340 kts 94°
2026-05-04 18:56 48.26702 11.77528 10579 ft 337 kts 94°
2026-05-04 18:56 48.26639 11.80984 10144 ft 335 kts 94°
2026-05-04 18:56 48.26572 11.84476 9693 ft 332 kts 94°
2026-05-04 18:56 48.26499 11.87926 9238 ft 329 kts 94°
2026-05-04 18:57 48.26419 11.91346 8790 ft 326 kts 94°
2026-05-04 18:57 48.26332 11.94728 8342 ft 323 kts 94°
2026-05-04 18:57 48.26237 11.98097 7900 ft 320 kts 94°
2026-05-04 18:57 48.26143 12.01368 7758 ft 307 kts 94°
2026-05-04 18:58 48.26051 12.04504 7640 ft 294 kts 94°
2026-05-04 18:58 48.26091 12.07520 7460 ft 285 kts 86°
2026-05-04 18:58 48.26327 12.10466 7086 ft 284 kts 84°
2026-05-04 18:58 48.26571 12.13398 6781 ft 280 kts 84°
2026-05-04 18:59 48.26804 12.16242 6648 ft 269 kts 84°
2026-05-04 18:59 48.27023 12.18928 6559 ft 257 kts 84°
2026-05-04 18:59 48.27235 12.21532 6424 ft 247 kts 84°
2026-05-04 18:59 48.27511 12.24057 6133 ft 246 kts 72°
2026-05-04 19:00 48.28249 12.26327 5964 ft 237 kts 51°
2026-05-04 19:00 48.29524 12.27738 5802 ft 223 kts 19°
2026-05-04 19:00 48.31035 12.27941 5247 ft 221 kts 346°
2026-05-04 19:00 48.32291 12.26967 4705 ft 220 kts 315°
2026-05-04 19:01 48.33106 12.25045 4212 ft 216 kts 295°
2026-05-04 19:01 48.33704 12.23055 4010 ft 201 kts 294°
2026-05-04 19:01 48.34278 12.21111 3978 ft 197 kts 293°
2026-05-04 19:01 48.34864 12.19327 3992 ft 188 kts 299°
2026-05-04 19:02 48.35480 12.17614 3992 ft 189 kts 298°
2026-05-04 19:02 48.36082 12.15863 3993 ft 189 kts 297°
2026-05-04 19:02 48.36586 12.14050 4000 ft 188 kts 284°
2026-05-04 19:02 48.36761 12.12100 3998 ft 188 kts 270°
2026-05-04 19:03 48.36707 12.10125 3989 ft 189 kts 264°
2026-05-04 19:03 48.36571 12.08159 4004 ft 189 kts 263°
2026-05-04 19:03 48.36422 12.06198 3988 ft 189 kts 263°
2026-05-04 19:03 48.36274 12.04230 3994 ft 189 kts 263°
2026-05-04 19:04 48.36125 12.02260 3998 ft 189 kts 263°
2026-05-04 19:04 48.35976 12.00299 3992 ft 191 kts 263°
2026-05-04 19:04 48.35819 11.98221 3918 ft 198 kts 263°
2026-05-04 19:04 48.35668 11.96222 3574 ft 188 kts 263°
2026-05-04 19:05 48.35524 11.94327 3311 ft 177 kts 263°
2026-05-04 19:05 48.35388 11.92538 3079 ft 167 kts 263°
2026-05-04 19:05 48.35259 11.90844 2855 ft 159 kts 264°
2026-05-04 19:05 48.35133 11.89171 2658 ft 163 kts 264°
2026-05-04 19:06 48.35010 11.87557 2447 ft 159 kts 264°
2026-05-04 19:06 48.34886 11.85918 2228 ft 155 kts 264°
2026-05-04 19:06 48.34765 11.84315 2012 ft 157 kts 264°
2026-05-04 19:06 48.34630 11.82510 2345 ft 186 kts 264°
2026-05-04 19:07 48.34487 11.80549 2783 ft 207 kts 264°
2026-05-04 19:07 48.34327 11.78318 3296 ft 228 kts 264°
2026-05-04 19:07 48.34147 11.75798 3798 ft 258 kts 263°
2026-05-04 19:07 48.33945 11.72983 4388 ft 283 kts 263°
2026-05-04 19:08 48.33724 11.69924 5065 ft 305 kts 263°
2026-05-04 19:08 48.33469 11.66664 5810 ft 323 kts 261°
2026-05-04 19:08 48.32894 11.63357 6544 ft 333 kts 245°
2026-05-04 19:08 48.31592 11.60413 7169 ft 345 kts 224°
2026-05-04 19:09 48.29602 11.58338 7809 ft 353 kts 205°
2026-05-04 19:09 48.27518 11.56679 8039 ft 333 kts 212°
2026-05-04 19:09 48.25605 11.55004 8277 ft 306 kts 204°
2026-05-04 19:09 48.23563 11.54299 8019 ft 298 kts 185°
2026-05-04 19:10 48.21550 11.54206 7992 ft 281 kts 175°
2026-05-04 19:10 48.19719 11.54944 7990 ft 266 kts 162°
2026-05-04 19:10 48.18032 11.55855 7999 ft 249 kts 162°
2026-05-04 19:10 48.16455 11.56712 7964 ft 235 kts 162°
2026-05-04 19:11 48.14927 11.57562 7658 ft 235 kts 159°
2026-05-04 19:11 48.13447 11.58613 7325 ft 236 kts 155°
2026-05-04 19:11 48.12043 11.59809 7003 ft 236 kts 140°
2026-05-04 19:11 48.11106 11.61845 6658 ft 239 kts 109°
2026-05-04 19:12 48.11011 11.64312 6329 ft 241 kts 77°
2026-05-04 19:12 48.12724 11.68539 5732 ft 239 kts 54°
2026-05-04 19:12 48.13706 11.70526 5486 ft 236 kts 54°
2026-05-04 19:13 48.14683 11.72495 5211 ft 234 kts 54°
2026-05-04 19:13 48.15646 11.74436 5028 ft 229 kts 54°
2026-05-04 19:13 48.16617 11.76391 5003 ft 241 kts 54°
2026-05-04 19:13 48.17619 11.78413 5000 ft 241 kts 54°
2026-05-04 19:14 48.18620 11.80433 5000 ft 241 kts 54°
2026-05-04 19:14 48.19622 11.82452 4996 ft 241 kts 54°
2026-05-04 19:14 48.20624 11.84470 4998 ft 241 kts 54°
2026-05-04 19:14 48.21627 11.86492 5002 ft 242 kts 54°
2026-05-04 19:15 48.22629 11.88512 4985 ft 240 kts 54°
2026-05-04 19:15 48.23610 11.90489 4811 ft 239 kts 54°
2026-05-04 19:15 48.24600 11.92486 4538 ft 237 kts 54°
2026-05-04 19:15 48.25559 11.94499 4244 ft 236 kts 63°
2026-05-04 19:16 48.25979 11.96824 4044 ft 230 kts 84°
2026-05-04 19:16 48.26157 11.99251 4002 ft 234 kts 84°
2026-05-04 19:16 48.26331 12.01676 3990 ft 233 kts 84°
2026-05-04 19:16 48.26505 12.04096 3990 ft 234 kts 84°
2026-05-04 19:17 48.26679 12.06529 3998 ft 234 kts 84°
2026-05-04 19:17 48.26850 12.08956 3989 ft 234 kts 84°
2026-05-04 19:17 48.27022 12.11384 3987 ft 234 kts 82°
2026-05-04 19:17 48.27618 12.13631 4000 ft 235 kts 52°
2026-05-04 19:18 48.28895 12.15079 4000 ft 236 kts 21°
2026-05-04 19:18 48.30522 12.15361 4001 ft 238 kts 356°
2026-05-04 19:18 48.32171 12.15061 3988 ft 238 kts 346°
2026-05-04 19:18 48.33605 12.13864 3992 ft 238 kts 314°
2026-05-04 19:19 48.34452 12.11832 3986 ft 222 kts 295°
2026-05-04 19:19 48.35082 12.09749 3998 ft 220 kts 294°
2026-05-04 19:19 48.35708 12.07642 3995 ft 220 kts 292°
2026-05-04 19:19 48.36211 12.05473 3996 ft 220 kts 287°
2026-05-04 19:20 48.36554 12.03296 3974 ft 206 kts 265°
2026-05-04 19:20 48.36295 12.01345 4022 ft 184 kts 254°
2026-05-04 19:20 48.35997 11.99457 3956 ft 189 kts 258°
2026-05-04 19:20 48.35783 11.97523 3711 ft 187 kts 262°
2026-05-04 19:21 48.35620 11.95580 3462 ft 186 kts 263°
2026-05-04 19:21 48.35473 11.93654 3218 ft 182 kts 263°
2026-05-04 19:21 48.35334 11.91825 2991 ft 170 kts 263°
2026-05-04 19:21 48.35204 11.90114 2765 ft 159 kts 264°
2026-05-04 19:22 48.35079 11.88458 2563 ft 161 kts 264°
2026-05-04 19:22 48.34956 11.86844 2358 ft 148 kts 264°
2026-05-04 19:22 48.34844 11.85364 2150 ft 139 kts 264°
2026-05-04 19:22 48.34734 11.83914 1959 ft 139 kts 264°
2026-05-04 19:23 48.34625 11.82473 1776 ft 138 kts 264°
2026-05-04 19:23 48.34553 11.81524 1652 ft 138 kts 264°
2026-05-04 19:23 48.34443 11.80098 1489 ft 137 kts 264°
2026-05-04 19:23 48.34352 11.78810 1465 ft 90 kts 264°
2026-05-04 19:24 48.34310 11.78189 1471 ft 20 kts 259°
2026-05-04 19:24 48.34320 11.77995 1471 ft 21 kts 291°
2026-05-04 19:24 48.34381 11.77780 1467 ft 18 kts 294°
2026-05-04 19:24 48.34395 11.77732 1459 ft 0 kts 293°
2026-05-04 19:25 48.34397 11.77723 1460 ft 5 kts 293°
2026-05-04 19:25 48.34441 11.77570 1460 ft 21 kts 294°
2026-05-04 19:25 48.34506 11.77438 1458 ft 14 kts 342°
2026-05-04 19:25 48.34606 11.77434 1464 ft 15 kts 22°
2026-05-04 19:26 48.34638 11.77568 1462 ft 15 kts 82°
2026-05-04 19:26 48.34648 11.77735 1460 ft 17 kts 85°
2026-05-04 19:26 48.34664 11.77922 1466 ft 19 kts 82°
2026-05-04 19:26 48.34679 11.78125 1466 ft 20 kts 84°
2026-05-04 19:27 48.34694 11.78339 1462 ft 21 kts 84°
2026-05-04 19:27 48.34711 11.78568 1457 ft 22 kts 83°
2026-05-04 19:27 48.34730 11.78802 1464 ft 23 kts 83°
2026-05-04 19:27 48.34750 11.79050 1467 ft 24 kts 83°
2026-05-04 19:28 48.34769 11.79291 1464 ft 18 kts 83°
2026-05-04 19:28 48.34781 11.79444 1466 ft 10 kts 83°
2026-05-04 19:28 48.34790 11.79531 1464 ft 4 kts 69°
2026-05-04 19:28 48.34813 11.79564 1461 ft 5 kts 20°
2026-05-04 19:29 48.34827 11.79564 1467 ft 0 kts 355°
2026-05-04 19:30 48.34885 11.79552 1463 ft 12 kts 352°
2026-05-04 19:30 48.34967 11.79560 1463 ft 12 kts 31°
2026-05-04 19:30 48.35046 11.79594 1461 ft 13 kts 352°
2026-05-04 19:30 48.35144 11.79573 1460 ft 15 kts 354°
2026-05-04 19:31 48.35255 11.79557 1463 ft 17 kts 354°
2026-05-04 19:31 48.35347 11.79537 1465 ft 9 kts 343°
2026-05-04 19:31 48.35362 11.79445 1462 ft 14 kts 257°
2026-05-04 19:31 48.35344 11.79319 1461 ft 4 kts 262°